QPF
0.00 0.00 0.00 0.00 0.04 0.06 0.01 0.00 0.00 0.00 0.00 0.00 0.00 0.00 0.00 0.01 0.00 0.05 0.00 0.00 0.00 0.00 0.00 0.00 0.00 0.00 0.00 0.00 0.00 0.01 0.04 0.07 0.06 0.08 0.09 0.04 0.01 0.02 0.01 0.01 0.00 0.02 0.13 0.08 0.00 0.00 0.00 0.00 0.00
0.00 0.00 0.00 0.00 0.04 0.04 0.05 0.00 0.00 0.00 0.00 0.00 0.00 0.00 0.01 0.00 0.00 0.00 0.00 0.00 0.00 0.01 0.02 0.00 0.00 0.00 0.00 0.00 0.01 0.03 0.01 0.05 0.08 0.10 0.15 0.10 0.01 0.01 0.00 0.00 0.05 0.08 0.05 0.01 0.01 0.06 0.01 0.00 0.01
0.00 0.00 0.00 0.00 0.02 0.06 0.03 0.00 0.00 0.00 0.00 0.00 0.00 0.00 0.00 0.00 0.00 0.00 0.00 0.00 0.00 0.01 0.01 0.00 0.00 0.01 0.00 0.00 0.01 0.04 0.00 0.01 0.02 0.08 0.12 0.14 0.02 0.01 0.01 0.02 0.09 0.06 0.02 0.04 0.05 0.06 0.03 0.01 0.02
0.00 0.00 0.00 0.05 0.07 0.03 0.00 0.00 0.00 0.00 0.00 0.00 0.00 0.00 0.00 0.00 0.00 0.00 0.00 0.01 0.01 0.01 0.00 0.00 0.05 0.03 0.04 0.02 0.01 0.02 0.00 0.05 0.04 0.03 0.03 0.12 0.10 0.09 0.04 0.06 0.07 0.05 0.04 0.08 0.11 0.05 0.02 0.01 0.00
0.00 0.00 0.01 0.08 0.10 0.01 0.00 0.00 0.00 0.00 0.00 0.00 0.00 0.00 0.00 0.00 0.00 0.00 0.00 0.01 0.02 0.02 0.00 0.00 0.02 0.05 0.06 0.03 0.06 0.16 0.11 0.10 0.14 0.09 0.06 0.14 0.13 0.07 0.06 0.12 0.07 0.02 0.03 0.06 0.02 0.01 0.00 0.00 0.00
0.02 0.02 0.08 0.08 0.12 0.03 0.00 0.00 0.00 0.00 0.00 0.00 0.00 0.00 0.00 0.00 0.00 0.00 0.00 0.01 0.03 0.03 0.00 0.00 0.04 0.00 0.00 0.00 0.05 0.16 0.22 0.15 0.11 0.20 0.14 0.17 0.11 0.09 0.15 0.12 0.02 0.00 0.02 0.02 0.00 0.00 0.00 0.00 0.00
0.03 0.05 0.06 0.04 0.12 0.14 0.02 0.00 0.00 0.00 0.00 0.00 0.00 0.00 0.00 0.00 0.00 0.00 0.00 0.00 0.02 0.01 0.01 0.05 0.04 0.02 0.02 0.04 0.08 0.16 0.17 0.02 0.12 0.14 0.11 0.08 0.01 0.07 0.13 0.02 0.00 0.00 0.00 0.00 0.00 0.00 0.00 0.00 0.00
0.00 0.01 0.03 0.04 0.09 0.16 0.01 0.00 0.00 0.00 0.00 0.00 0.00 0.00 0.00 0.00 0.00 0.00 0.00 0.00 0.01 0.01 0.00 0.00 0.01 0.02 0.12 0.19 0.10 0.06 0.03 0.00 0.04 0.08 0.04 0.06 0.06 0.09 0.11 0.06 0.00 0.00 0.00 0.00 0.00 0.00 0.00 0.00 0.00
0.00 0.02 0.01 0.01 0.06 0.06 0.00 0.00 0.00 0.00 0.00 0.00 0.00 0.00 0.00 0.00 0.00 0.00 0.00 0.00 0.00 0.01 0.01 0.00 0.04 0.12 0.18 0.20 0.15 0.08 0.10 0.03 0.08 0.10 0.06 0.04 0.06 0.02 0.04 0.06 0.00 0.00 0.00 0.00 0.00 0.00 0.00 0.00 0.00
0.00 0.06 0.06 0.01 0.00 0.00 0.00 0.00 0.00 0.00 0.00 0.00 0.00 0.00 0.00 0.00 0.00 0.00 0.00 0.00 0.00 0.00 0.00 0.00 0.01 0.04 0.09 0.13 0.13 0.15 0.10 0.07 0.09 0.10 0.07 0.09 0.10 0.08 0.02 0.00 0.00 0.00 0.00 0.00 0.00 0.00 0.00 0.00 0.00
0.01 0.06 0.04 0.00 0.00 0.01 0.03 0.00 0.00 0.00 0.00 0.00 0.00 0.00 0.00 0.00 0.00 0.00 0.00 0.00 0.00 0.00 0.00 0.00 0.00 0.03 0.03 0.01 0.07 0.03 0.02 0.02 0.04 0.02 0.02 0.02 0.01 0.00 0.00 0.00 0.00 0.00 0.00 0.00 0.00 0.00 0.00 0.00 0.00
0.01 0.00 0.00 0.00 0.00 0.03 0.06 0.00 0.00 0.00 0.00 0.00 0.00 0.00 0.00 0.00 0.00 0.00 0.00 0.00 0.00 0.00 0.00 0.00 0.00 0.00 0.00 0.00 0.06 0.02 0.02 0.00 0.00 0.00 0.00 0.00 0.00 0.00 0.00 0.00 0.00 0.00 0.00 0.00 0.00 0.00 0.00 0.00 0.00
0.00 0.00 0.00 0.00 0.00 0.00 0.02 0.07 0.01 0.00 0.00 0.00 0.00 0.00 0.00 0.00 0.00 0.00 0.00 0.00 0.00 0.00 0.00 0.00 0.00 0.00 0.01 0.01 0.00 0.00 0.00 0.00 0.00 0.00 0.00 0.00 0.00 0.00 0.00 0.00 0.00 0.00 0.00 0.00 0.00 0.00 0.00 0.00 0.00
0.00 0.00 0.00 0.00 0.00 0.00 0.01 0.01 0.03 0.02 0.00 0.00 0.00 0.00 0.00 0.00 0.00 0.00 0.00 0.00 0.00 0.00 0.00 0.00 0.00 0.01 0.06 0.05 0.03 0.00 0.00 0.00 0.00 0.00 0.00 0.00 0.00 0.00 0.00 0.00 0.00 0.00 0.00 0.00 0.00 0.00 0.00 0.00 0.00
0.00 0.00 0.01 0.01 0.00 0.00 0.00 0.00 0.04 0.03 0.00 0.00 0.00 0.00 0.00 0.00 0.00 0.00 0.00 0.00 0.00 0.00 0.00 0.00 0.00 0.00 0.01 0.03 0.02 0.00 0.00 0.00 0.00 0.00 0.00 0.00 0.00 0.00 0.00 0.00 0.00 0.00 0.00 0.00 0.00 0.00 0.00 0.00 0.00
0.00 0.00 0.02 0.01 0.01 0.01 0.01 0.01 0.01 0.06 0.01 0.01 0.00 0.00 0.00 0.00 0.00 0.00 0.00 0.00 0.00 0.00 0.00 0.00 0.00 0.00 0.00 0.00 0.00 0.00 0.00 0.00 0.00 0.00 0.00 0.00 0.00 0.00 0.00 0.00 0.00 0.00 0.00 0.00 0.00 0.00 0.00 0.00 0.00
0.00 0.00 0.00 0.00 0.00 0.01 0.07 0.09 0.01 0.01 0.01 0.00 0.00 0.00 0.00 0.00 0.00 0.00 0.00 0.00 0.00 0.00 0.00 0.00 0.00 0.00 0.00 0.00 0.00 0.00 0.00 0.00 0.00 0.00 0.00 0.00 0.00 0.00 0.00 0.00 0.00 0.00 0.00 0.00 0.00 0.00 0.00 0.00 0.00
0.00 0.00 0.00 0.01 0.01 0.01 0.04 0.06 0.01 0.00 0.00 0.00 0.00 0.00 0.00 0.00 0.00 0.00 0.00 0.00 0.00 0.00 0.00 0.00 0.00 0.00 0.00 0.00 0.00 0.00 0.00 0.00 0.00 0.00 0.00 0.00 0.00 0.00 0.00 0.00 0.00 0.00 0.00 0.00 0.00 0.00 0.00 0.00 0.00
0.00 0.00 0.00 0.00 0.00 0.00 0.01 0.00 0.00 0.00 0.00 0.00 0.00 0.01 0.00 0.00 0.01 0.00 0.00 0.00 0.00 0.00 0.00 0.00 0.00 0.00 0.00 0.00 0.00 0.00 0.00 0.00 0.00 0.00 0.00 0.00 0.00 0.00 0.00 0.00 0.00 0.00 0.00 0.00 0.00 0.00 0.00 0.00 0.00
0.00 0.00 0.00 0.00 0.00 0.00 0.00 0.00 0.00 0.00 0.00 0.00 0.00 0.00 0.02 0.00 0.01 0.00 0.00 0.00 0.00 0.00 0.00 0.00 0.00 0.00 0.00 0.00 0.00 0.00 0.00 0.00 0.00 0.00 0.00 0.00 0.00 0.00 0.00 0.00 0.00 0.00 0.00 0.00 0.00 0.00 0.00 0.00 0.00
0.00 0.00 0.00 0.01 0.00 0.00 0.00 0.02 0.00 0.00 0.00 0.00 0.00 0.00 0.00 0.01 0.01 0.00 0.00 0.00 0.00 0.00 0.00 0.00 0.00 0.00 0.00 0.00 0.00 0.00 0.02 0.03 0.01 0.00 0.00 0.00 0.00 0.00 0.00 0.00 0.00 0.00 0.00 0.00 0.00 0.00 0.00 0.00 0.00
0.00 0.00 0.00 0.00 0.02 0.04 0.00 0.01 0.00 0.00 0.00 0.00 0.00 0.00 0.00 0.00 0.01 0.03 0.00 0.00 0.00 0.00 0.00 0.00 0.00 0.00 0.00 0.00 0.03 0.03 0.00 0.01 0.00 0.00 0.00 0.00 0.00 0.00 0.00 0.00 0.00 0.00 0.00 0.00 0.00 0.00 0.00 0.00 0.00
0.00 0.00 0.00 0.00 0.00 0.00 0.00 0.00 0.00 0.00 0.00 0.00 0.00 0.00 0.00 0.00 0.00 0.01 0.01 0.00 0.00 0.00 0.00 0.00 0.00 0.00 0.00 0.03 0.17 0.04 0.00 0.01 0.00 0.00 0.00 0.00 0.00 0.00 0.00 0.00 0.00 0.00 0.00 0.00 0.00 0.00 0.00 0.00 0.00
0.00 0.00 0.00 0.00 0.00 0.00 0.00 0.00 0.00 0.00 0.00 0.00 0.00 0.00 0.00 0.00 0.00 0.00 0.00 0.00 0.00 0.00 0.00 0.00 0.00 0.00 0.00 0.01 0.03 0.00 0.00 0.01 0.02 0.00 0.00 0.00 0.00 0.00 0.00 0.00 0.00 0.00 0.00 0.00 0.00 0.00 0.00 0.00 0.00
0.00 0.00 0.00 0.00 0.00 0.00 0.00 0.00 0.00 0.00 0.00 0.00 0.00 0.00 0.00 0.00 0.00 0.00 0.00 0.00 0.00 0.00 0.00 0.00 0.00 0.00 0.00 0.01 0.01 0.00 0.02 0.00 0.00 0.00 0.00 0.00 0.00 0.00 0.00 0.00 0.00 0.00 0.00 0.00 0.00 0.00 0.00 0.00 0.00
0.00 0.00 0.00 0.00 0.00 0.00 0.00 0.00 0.00 0.00 0.00 0.00 0.00 0.00 0.00 0.00 0.00 0.00 0.00 0.00 0.00 0.00 0.00 0.00 0.00 0.00 0.00 0.00 0.00 0.00 0.04 0.02 0.00 0.00 0.00 0.00 0.00 0.00 0.00 0.00 0.00 0.00 0.00 0.00 0.00 0.00 0.00 0.00 0.00
0.00 0.00 0.00 0.00 0.00 0.00 0.00 0.00 0.00 0.00 0.00 0.00 0.00 0.00 0.00 0.00 0.00 0.00 0.00 0.00 0.00 0.00 0.00 0.00 0.00 0.00 0.00 0.00 0.01 0.00 0.03 0.01 0.00 0.00 0.00 0.00 0.00 0.00 0.00 0.00 0.00 0.00 0.00 0.00 0.00 0.00 0.00 0.01 0.00
0.00 0.00 0.00 0.00 0.00 0.00 0.00 0.00 0.00 0.00 0.00 0.00 0.00 0.00 0.00 0.00 0.00 0.00 0.00 0.00 0.00 0.00 0.00 0.00 0.00 0.00 0.00 0.00 0.00 0.00 0.00 0.00 0.00 0.00 0.01 0.00 0.01 0.00 0.00 0.00 0.00 0.00 0.00 0.00 0.00 0.00 0.00 0.00 0.00
0.00 0.00 0.00 0.00 0.00 0.00 0.00 0.00 0.00 0.00 0.00 0.00 0.00 0.00 0.00 0.00 0.00 0.00 0.00 0.00 0.00 0.00 0.00 0.00 0.00 0.00 0.00 0.00 0.00 0.00 0.00 0.00 0.00 0.00 0.00 0.00 0.00 0.00 0.00 0.04 0.01 0.00 0.00 0.00 0.02 0.00 0.01 0.00 0.00
0.00 0.00 0.00 0.00 0.00 0.00 0.00 0.00 0.00 0.00 0.00 0.00 0.00 0.00 0.00 0.00 0.00 0.00 0.00 0.00 0.00 0.00 0.00 0.00 0.00 0.00 0.00 0.00 0.00 0.00 0.00 0.00 0.00 0.00 0.00 0.00 0.00 0.00 0.01 0.03 0.00 0.00 0.00 0.00 0.01 0.00 0.00 0.00 0.00
MSLP
1009.20 1008.22 1007.19 1006.48 1006.12 1005.21 1004.22 1003.12 1002.65 1003.03 1003.65 1004.16 1004.91 1005.48 1006.40 1006.95 1007.10 1008.86 1009.98 1010.64 1011.35 1011.80 1012.60 1013.44 1014.07 1014.28 1014.47 1014.63 1014.66 1014.68 1014.78 1014.96 1015.15 1015.20 1015.28 1015.40 1015.37 1015.40 1015.49 1015.50 1015.61 1015.75 1015.86 1015.95 1015.93 1016.05 1016.10 1016.20 1016.28
1007.25 1007.05 1006.90 1006.05 1005.10 1005.17 1003.88 1003.10 1003.09 1003.23 1003.84 1004.91 1005.33 1006.15 1006.71 1007.78 1008.58 1009.67 1010.68 1011.47 1011.58 1011.91 1012.16 1013.10 1014.19 1014.43 1014.56 1014.78 1014.90 1015.01 1015.09 1015.25 1015.40 1015.57 1015.55 1015.62 1015.63 1015.70 1015.88 1015.89 1015.93 1016.13 1016.02 1016.02 1016.20 1016.40 1016.33 1016.42 1016.51
1008.01 1006.92 1006.23 1004.83 1005.15 1005.12 1004.12 1003.91 1004.04 1004.52 1004.65 1004.56 1005.77 1006.45 1006.84 1008.21 1009.08 1010.33 1011.41 1011.87 1012.24 1012.89 1012.84 1013.89 1014.30 1014.52 1014.69 1014.92 1015.05 1015.19 1015.31 1015.47 1015.60 1015.85 1015.88 1015.96 1015.85 1015.92 1016.15 1016.16 1016.21 1016.52 1016.29 1016.35 1016.61 1016.73 1016.72 1016.74 1016.81
1006.95 1006.39 1006.11 1005.08 1005.00 1005.36 1004.23 1004.48 1004.52 1004.66 1004.96 1005.56 1006.05 1007.40 1008.56 1008.72 1009.28 1010.68 1011.71 1012.13 1012.39 1012.51 1013.22 1014.43 1014.61 1014.80 1014.93 1015.17 1015.28 1015.39 1015.46 1015.66 1015.68 1016.00 1016.09 1016.09 1016.03 1016.13 1016.35 1016.46 1016.52 1016.62 1016.60 1016.77 1016.82 1016.88 1016.98 1017.04 1017.02
1006.74 1005.70 1005.25 1005.48 1006.05 1005.29 1005.49 1005.32 1005.17 1004.84 1005.25 1005.92 1006.04 1007.49 1008.82 1009.54 1009.97 1010.74 1011.93 1012.51 1012.43 1012.97 1013.36 1014.36 1014.97 1015.14 1015.24 1015.36 1015.50 1015.76 1015.74 1015.80 1015.95 1016.07 1016.34 1016.39 1016.38 1016.56 1016.64 1016.69 1016.61 1016.81 1016.88 1017.01 1017.05 1017.15 1017.23 1017.12 1017.05
1006.34 1006.10 1006.10 1006.50 1006.87 1006.11 1006.66 1006.09 1005.53 1005.40 1005.93 1006.45 1006.90 1007.78 1009.23 1010.07 1010.18 1010.15 1011.76 1012.41 1013.33 1013.43 1013.65 1014.47 1015.32 1015.53 1015.73 1015.76 1015.97 1016.08 1016.20 1016.21 1016.43 1016.33 1016.46 1016.66 1016.73 1016.93 1016.96 1016.78 1016.97 1017.13 1017.10 1017.20 1017.26 1017.39 1017.42 1017.26 1017.27
1005.96 1006.63 1006.94 1007.35 1007.69 1007.19 1007.49 1006.88 1005.94 1005.65 1005.63 1006.13 1006.85 1007.76 1009.37 1009.74 1010.33 1010.22 1011.36 1012.72 1013.13 1013.36 1014.54 1015.20 1015.19 1015.91 1016.16 1016.27 1016.45 1016.53 1016.59 1016.75 1017.06 1016.75 1016.78 1016.84 1016.96 1017.12 1017.06 1016.90 1017.19 1017.23 1017.23 1017.35 1017.44 1017.56 1017.49 1017.43 1017.42
1005.03 1006.22 1006.94 1007.76 1008.36 1008.19 1008.41 1007.88 1007.21 1006.20 1006.65 1006.81 1006.80 1007.75 1008.84 1009.86 1010.33 1010.65 1010.94 1012.01 1012.96 1013.54 1014.86 1015.34 1016.18 1016.56 1016.96 1016.59 1016.92 1017.04 1017.20 1017.25 1017.30 1017.34 1017.16 1017.12 1017.06 1017.09 1017.26 1017.15 1017.25 1017.32 1017.49 1017.49 1017.58 1017.64 1017.59 1017.53 1017.43
1004.91 1005.65 1005.95 1006.56 1008.04 1009.03 1008.83 1008.10 1008.26 1007.38 1006.73 1006.98 1007.01 1006.92 1008.53 1010.06 1010.34 1010.49 1010.82 1012.30 1013.08 1014.17 1014.30 1014.36 1016.04 1016.76 1016.90 1017.11 1017.26 1017.44 1017.52 1017.62 1017.56 1017.40 1017.36 1017.36 1017.03 1016.81 1017.26 1017.37 1017.36 1017.58 1017.60 1017.62 1017.66 1017.69 1017.54 1017.33 1017.13
1003.92 1004.83 1006.65 1007.07 1007.86 1008.61 1009.22 1008.41 1007.75 1006.95 1006.72 1007.27 1007.29 1008.09 1009.27 1010.04 1010.22 1010.50 1010.60 1011.44 1012.31 1013.82 1014.37 1014.53 1015.25 1016.01 1016.66 1017.03 1017.53 1017.63 1017.69 1017.72 1017.70 1017.36 1017.49 1017.49 1017.35 1017.05 1016.55 1017.25 1017.49 1017.66 1017.72 1017.58 1017.62 1017.49 1016.96 1016.87 1015.95
1004.03 1005.18 1006.64 1008.25 1008.23 1009.15 1009.35 1009.10 1007.84 1007.02 1006.88 1006.78 1007.75 1008.59 1009.38 1009.96 1010.06 1010.35 1010.71 1011.18 1012.33 1012.76 1013.32 1014.42 1015.01 1015.34 1015.50 1016.18 1016.76 1017.05 1016.95 1017.28 1017.56 1017.00 1016.79 1016.90 1016.63 1016.60 1016.44 1016.98 1017.04 1017.14 1017.37 1016.95 1017.16 1016.81 1016.25 1015.24 1014.98
1004.82 1005.56 1007.02 1008.41 1008.49 1009.17 1009.74 1009.21 1007.81 1007.55 1008.59 1006.92 1007.98 1008.67 1009.22 1009.51 1009.57 1009.93 1010.61 1011.48 1012.29 1012.88 1013.30 1014.29 1015.02 1014.97 1015.04 1015.13 1016.88 1016.52 1016.98 1016.22 1016.12 1016.13 1016.33 1016.72 1016.26 1016.23 1016.15 1015.77 1016.15 1016.31 1016.09 1016.00 1015.78 1015.44 1015.86 1015.35 1015.54
1004.06 1005.79 1007.14 1008.38 1008.82 1009.36 1009.81 1009.04 1007.99 1008.25 1007.75 1007.56 1008.13 1008.69 1008.99 1008.92 1009.41 1010.02 1010.65 1011.63 1012.26 1012.81 1013.52 1014.16 1014.84 1015.38 1015.31 1014.96 1014.90 1015.75 1015.54 1015.92 1015.78 1016.16 1016.10 1016.08 1016.18 1016.45 1015.83 1016.22 1015.84 1015.57 1015.80 1015.88 1015.55 1015.47 1015.72 1015.66 1015.37
1004.86 1005.72 1006.62 1008.32 1009.47 1009.99 1010.13 1009.93 1008.78 1008.26 1008.02 1007.94 1008.44 1008.56 1008.82 1008.94 1009.54 1010.32 1010.83 1011.63 1012.25 1012.74 1013.42 1014.32 1014.86 1015.34 1015.79 1015.73 1015.23 1015.32 1015.86 1015.57 1015.52 1016.00 1016.49 1016.33 1016.07 1015.99 1016.21 1016.09 1015.71 1015.85 1015.24 1015.28 1015.52 1015.93 1015.51 1015.50 1015.30
1004.68 1005.79 1006.59 1007.24 1009.32 1009.71 1010.40 1010.52 1009.67 1008.86 1008.41 1008.22 1008.28 1008.40 1008.74 1009.20 1009.93 1010.67 1011.09 1011.63 1012.12 1012.72 1013.54 1014.26 1014.64 1014.98 1015.46 1016.09 1015.68 1015.18 1015.34 1015.69 1015.53 1016.00 1016.96 1016.96 1016.63 1016.53 1016.20 1015.73 1015.41 1015.45 1016.01 1016.27 1016.14 1016.03 1015.62 1015.32 1015.41
1003.95 1005.06 1005.40 1006.91 1007.99 1009.69 1010.15 1011.49 1010.92 1010.17 1008.74 1008.61 1008.45 1008.38 1008.97 1009.37 1009.93 1010.50 1011.17 1011.58 1012.12 1012.82 1013.68 1014.26 1014.09 1014.89 1015.39 1015.77 1015.66 1015.37 1015.01 1015.37 1015.52 1015.91 1016.54 1016.95 1017.00 1016.77 1016.47 1015.90 1015.47 1016.04 1015.75 1015.51 1015.48 1015.55 1015.42 1015.39 1015.51
1003.95 1004.01 1004.61 1005.99 1006.97 1008.22 1009.46 1010.37 1010.85 1010.65 1009.31 1008.62 1008.59 1008.46 1008.93 1009.30 1009.90 1010.33 1011.02 1011.38 1012.19 1012.83 1013.71 1014.08 1014.43 1014.67 1015.33 1015.97 1015.62 1015.62 1016.28 1015.66 1015.64 1015.77 1015.92 1016.78 1016.82 1016.90 1016.05 1015.61 1016.20 1016.59 1015.68 1015.42 1015.37 1015.60 1015.68 1015.56 1015.32
1003.79 1003.05 1003.53 1004.90 1006.00 1006.83 1007.58 1008.12 1009.22 1009.68 1009.49 1008.91 1008.61 1008.59 1008.97 1009.24 1009.52 1010.25 1010.49 1011.21 1011.90 1012.86 1013.64 1014.01 1014.52 1015.03 1015.45 1015.71 1015.86 1015.46 1015.89 1015.68 1015.73 1015.77 1015.91 1016.79 1016.68 1016.84 1016.51 1016.24 1016.39 1016.35 1015.67 1015.66 1015.67 1016.25 1016.04 1015.86 1015.78
1002.41 1002.29 1003.15 1004.02 1005.19 1005.41 1006.18 1006.76 1007.68 1008.77 1009.22 1008.76 1008.69 1008.57 1008.89 1009.11 1009.35 1009.91 1010.28 1010.75 1011.55 1012.40 1013.50 1013.99 1014.52 1015.09 1015.58 1015.60 1015.32 1015.26 1015.30 1015.61 1015.78 1015.84 1016.73 1016.84 1016.70 1016.84 1016.73 1015.95 1016.42 1016.09 1015.95 1016.27 1016.30 1016.03 1015.94 1015.33 1015.88
1001.83 1001.78 1002.98 1003.87 1004.67 1004.94 1005.00 1005.24 1006.35 1007.23 1008.40 1008.51 1008.53 1008.35 1008.61 1008.71 1010.23 1010.25 1009.80 1010.43 1011.14 1012.36 1013.25 1014.01 1014.52 1015.16 1015.68 1015.53 1015.42 1015.05 1015.13 1015.34 1015.40 1015.53 1016.48 1016.62 1016.76 1016.84 1016.84 1016.54 1016.30 1016.32 1016.02 1016.57 1016.56 1016.55 1015.68 1015.65 1016.17
1001.36 1001.06 1002.01 1004.16 1003.99 1004.32 1004.35 1005.55 1005.52 1006.49 1007.09 1008.23 1008.83 1008.33 1008.19 1008.70 1008.66 1009.05 1009.40 1010.23 1010.87 1011.81 1013.03 1013.69 1014.43 1015.08 1015.40 1015.18 1015.36 1015.79 1015.59 1015.68 1015.64 1015.79 1016.29 1016.45 1016.62 1016.68 1016.88 1016.99 1016.69 1016.77 1016.51 1016.25 1016.65 1016.53 1016.44 1015.74 1015.85
1000.44 1001.58 1002.26 1002.60 1004.09 1006.66 1004.53 1005.29 1005.89 1005.24 1006.16 1006.83 1007.31 1008.50 1008.34 1007.70 1009.29 1008.87 1008.95 1009.69 1010.42 1011.09 1012.35 1013.44 1014.12 1014.78 1015.27 1015.46 1015.18 1015.38 1015.50 1015.50 1015.36 1015.43 1015.61 1016.14 1016.47 1016.61 1016.72 1017.03 1017.23 1017.14 1016.22 1016.54 1016.69 1016.56 1016.71 1016.59 1015.62
1000.69 1001.88 1001.98 1002.58 1002.25 1003.63 1003.82 1002.20 1003.95 1003.59 1004.39 1005.24 1006.18 1006.43 1007.64 1008.28 1007.49 1007.97 1009.17 1008.87 1009.56 1010.56 1011.59 1012.82 1013.94 1014.51 1014.83 1015.37 1015.62 1015.74 1015.51 1016.08 1015.55 1015.18 1015.92 1015.95 1016.46 1016.60 1016.60 1017.09 1017.19 1017.20 1016.79 1017.06 1017.10 1017.04 1016.93 1016.42 1016.29
1001.23 1001.56 1001.73 1001.86 1001.59 1001.34 1002.19 1001.72 1002.32 1003.84 1002.07 1003.21 1004.30 1005.31 1006.70 1007.35 1007.16 1007.10 1007.78 1009.07 1008.91 1010.20 1010.88 1011.94 1013.51 1014.24 1014.59 1015.14 1015.67 1015.77 1015.35 1015.68 1015.51 1015.32 1015.77 1015.74 1016.10 1016.53 1016.74 1016.81 1017.11 1017.16 1016.89 1017.05 1017.11 1017.16 1017.09 1016.97 1016.82
1001.22 1000.31 1001.27 1001.69 1001.82 1001.00 1001.50 1000.90 1001.59 1001.85 1002.08 1002.57 1003.51 1004.28 1005.94 1006.80 1007.45 1006.86 1007.25 1007.95 1008.54 1009.44 1010.29 1011.37 1012.85 1013.83 1014.24 1014.62 1015.05 1015.58 1015.61 1015.76 1015.81 1015.67 1015.40 1015.25 1015.65 1015.57 1016.24 1016.69 1017.04 1017.11 1017.26 1017.05 1016.99 1017.27 1017.03 1017.09 1017.09
1000.31 999.68 999.54 1000.29 1000.49 999.14 1000.12 999.89 1000.70 1001.47 1001.97 1002.88 1004.01 1003.72 1004.17 1005.26 1006.37 1006.10 1006.51 1007.31 1008.06 1008.77 1009.77 1010.71 1012.05 1013.25 1013.82 1014.15 1014.64 1015.08 1015.48 1015.73 1015.63 1015.80 1015.11 1014.80 1015.21 1015.50 1015.71 1016.35 1016.46 1016.95 1017.01 1017.09 1017.22 1017.19 1017.09 1016.76 1017.01
999.37 999.77 999.03 998.84 998.51 999.39 999.46 1000.12 1000.52 1001.43 1001.68 1002.51 1003.07 1003.98 1004.22 1004.73 1005.64 1006.01 1006.53 1006.84 1007.73 1008.45 1009.35 1010.21 1011.41 1012.64 1013.24 1013.59 1014.24 1014.50 1015.25 1015.53 1015.28 1015.00 1015.50 1015.20 1014.98 1014.85 1015.44 1015.76 1016.40 1016.60 1016.93 1016.89 1017.11 1017.19 1016.97 1017.14 1017.14
999.79 999.75 999.03 999.14 998.78 998.72 999.98 999.55 1000.46 1001.26 1001.66 1002.16 1002.39 1002.93 1004.31 1004.61 1005.19 1005.55 1006.32 1006.76 1007.39 1008.15 1008.94 1009.91 1010.80 1011.90 1012.54 1012.91 1013.53 1014.00 1014.48 1014.87 1015.19 1015.14 1015.39 1015.16 1015.43 1015.11 1015.49 1015.93 1016.23 1016.46 1016.61 1016.74 1017.05 1016.83 1016.88 1017.11 1017.15
999.64 999.60 999.30 998.60 998.72 998.50 998.80 1000.48 1000.21 1001.10 1001.85 1002.12 1002.82 1003.35 1004.00 1004.73 1005.32 1005.85 1006.28 1006.94 1007.20 1007.74 1008.35 1009.14 1010.15 1011.03 1011.93 1012.31 1012.67 1013.21 1013.75 1014.19 1014.72 1014.87 1015.08 1015.36 1015.15 1015.38 1015.69 1015.94 1016.23 1016.24 1016.42 1016.62 1016.81 1016.96 1016.84 1016.87 1016.95
998.74 998.59 998.94 998.36 999.08 998.88 999.00 1000.48 1000.94 1001.47 1001.92 1002.67 1003.29 1003.82 1004.83 1005.31 1005.45 1005.87 1006.63 1007.07 1007.08 1007.93 1008.34 1008.88 1009.43 1010.15 1010.87 1011.47 1012.12 1012.74 1013.24 1013.59 1013.94 1014.35 1014.36 1014.63 1015.07 1015.41 1015.64 1016.14 1016.18 1016.25 1016.38 1016.37 1016.57 1016.85 1016.29 1016.62 1016.58
Thickness
5801 5810 5820 5811 5778 5775 5774 5795 5815 5799 5791 5807 5805 5790 5778 5779 5771 5741 5781 5780 5777 5774 5767 5763 5761 5760 5759 5758 5759 5760 5759 5758 5759 5760 5761 5762 5763 5762 5761 5762 5762 5762 5761 5761 5759 5756 5757 5757 5756
5818 5818 5812 5801 5777 5750 5779 5808 5796 5804 5807 5805 5800 5790 5778 5762 5778 5771 5767 5772 5773 5771 5772 5766 5759 5758 5759 5758 5757 5757 5756 5755 5756 5757 5759 5761 5761 5760 5761 5760 5760 5760 5762 5760 5757 5755 5757 5756 5755
5812 5818 5796 5796 5770 5735 5775 5797 5797 5799 5806 5804 5788 5793 5785 5766 5776 5768 5769 5768 5766 5763 5765 5759 5757 5757 5758 5756 5755 5755 5754 5753 5754 5754 5756 5758 5759 5760 5759 5759 5758 5757 5759 5758 5755 5754 5754 5754 5753
5811 5808 5803 5784 5776 5783 5796 5799 5802 5797 5801 5801 5794 5767 5777 5787 5778 5773 5770 5767 5765 5766 5761 5755 5755 5755 5755 5753 5753 5752 5752 5752 5754 5754 5754 5757 5758 5758 5757 5756 5756 5756 5756 5756 5755 5755 5753 5752 5752
5810 5803 5778 5774 5765 5795 5798 5801 5800 5793 5793 5790 5795 5769 5764 5777 5782 5779 5768 5764 5764 5762 5760 5754 5752 5752 5751 5751 5750 5748 5748 5750 5751 5752 5751 5754 5755 5754 5753 5752 5755 5753 5754 5754 5755 5754 5752 5753 5754
5782 5791 5760 5751 5760 5788 5789 5798 5798 5793 5790 5786 5780 5773 5764 5778 5777 5782 5771 5765 5758 5758 5756 5752 5748 5747 5747 5747 5746 5745 5745 5746 5746 5749 5750 5751 5751 5749 5747 5751 5752 5752 5753 5753 5754 5752 5752 5754 5754
5778 5765 5756 5758 5757 5770 5777 5794 5792 5792 5791 5785 5791 5766 5768 5774 5779 5783 5775 5764 5760 5759 5750 5745 5747 5744 5744 5740 5742 5741 5741 5741 5740 5741 5745 5748 5749 5747 5748 5751 5750 5751 5753 5753 5754 5753 5754 5755 5755
5802 5780 5762 5760 5742 5754 5773 5781 5789 5791 5780 5798 5798 5762 5760 5773 5780 5781 5779 5770 5764 5759 5748 5744 5739 5739 5737 5733 5734 5736 5735 5737 5737 5738 5741 5745 5747 5748 5747 5750 5751 5751 5751 5754 5754 5754 5755 5756 5757
5817 5770 5772 5775 5754 5748 5773 5774 5779 5794 5788 5789 5794 5794 5786 5781 5781 5778 5775 5764 5760 5754 5754 5753 5740 5736 5732 5731 5730 5730 5731 5732 5735 5737 5739 5742 5747 5751 5749 5750 5751 5751 5753 5754 5755 5756 5757 5761 5763
5805 5783 5762 5784 5778 5767 5762 5775 5781 5786 5785 5779 5786 5790 5784 5780 5777 5771 5771 5766 5763 5753 5753 5755 5748 5739 5734 5733 5728 5729 5731 5734 5735 5739 5739 5742 5745 5748 5755 5752 5751 5751 5753 5757 5758 5760 5765 5767 5774
5806 5778 5781 5767 5777 5767 5760 5764 5789 5783 5775 5786 5776 5777 5778 5776 5776 5773 5772 5771 5763 5766 5764 5757 5753 5749 5749 5743 5738 5736 5739 5737 5737 5744 5747 5747 5752 5755 5757 5755 5755 5756 5758 5763 5763 5767 5772 5781 5782
5776 5794 5781 5766 5774 5763 5750 5771 5781 5782 5769 5798 5789 5785 5781 5777 5778 5776 5772 5769 5765 5763 5764 5759 5753 5753 5753 5753 5744 5746 5743 5748 5751 5752 5751 5750 5757 5758 5761 5766 5764 5765 5770 5772 5776 5779 5777 5781 5779
5798 5789 5783 5773 5771 5766 5763 5767 5779 5773 5791 5797 5791 5785 5782 5785 5781 5779 5777 5771 5768 5763 5762 5761 5757 5753 5754 5758 5759 5754 5755 5754 5755 5754 5755 5757 5759 5759 5766 5764 5769 5773 5773 5775 5779 5781 5780 5779 5781
5800 5794 5788 5774 5760 5759 5752 5756 5775 5780 5791 5789 5784 5783 5784 5785 5781 5775 5773 5767 5764 5764 5763 5760 5757 5754 5752 5755 5759 5758 5755 5758 5759 5756 5754 5757 5761 5764 5765 5768 5772 5773 5780 5782 5782 5780 5783 5783 5783
5804 5779 5784 5783 5761 5760 5757 5742 5756 5777 5787 5783 5782 5784 5784 5782 5779 5770 5772 5768 5766 5766 5764 5760 5759 5757 5755 5752 5755 5760 5760 5758 5761 5758 5752 5753 5758 5761 5767 5772 5777 5778 5776 5777 5779 5781 5784 5786 5784
5799 5789 5769 5779 5777 5760 5758 5713 5741 5761 5778 5775 5780 5783 5780 5779 5777 5776 5774 5773 5772 5768 5762 5761 5766 5759 5755 5754 5755 5759 5764 5762 5761 5759 5756 5755 5757 5761 5766 5773 5780 5777 5781 5784 5787 5787 5787 5787 5786
5791 5772 5775 5771 5786 5772 5756 5733 5744 5758 5773 5775 5778 5782 5779 5779 5778 5778 5776 5777 5771 5769 5764 5762 5763 5762 5759 5754 5757 5757 5753 5760 5762 5762 5763 5758 5761 5762 5772 5778 5775 5775 5783 5787 5790 5788 5787 5786 5789
5747 5783 5790 5769 5782 5782 5770 5764 5765 5767 5768 5772 5778 5780 5778 5777 5779 5780 5782 5779 5775 5769 5766 5766 5763 5761 5760 5759 5758 5761 5758 5761 5763 5764 5765 5760 5763 5764 5770 5774 5776 5778 5785 5788 5790 5783 5786 5787 5788
5804 5800 5784 5790 5793 5789 5777 5776 5776 5772 5766 5773 5775 5777 5777 5779 5785 5784 5785 5784 5779 5773 5765 5765 5763 5762 5759 5758 5759 5760 5760 5762 5763 5765 5760 5760 5764 5765 5770 5779 5777 5782 5785 5784 5786 5788 5786 5792 5792
5804 5800 5784 5790 5795 5792 5790 5787 5787 5783 5770 5775 5775 5779 5777 5784 5772 5779 5787 5785 5782 5773 5768 5765 5764 5762 5759 5760 5761 5765 5765 5766 5769 5769 5763 5764 5765 5767 5769 5775 5780 5782 5786 5783 5785 5785 5789 5792 5789
5802 5806 5794 5753 5791 5798 5793 5756 5780 5784 5786 5777 5772 5783 5788 5778 5785 5786 5787 5784 5784 5778 5770 5767 5765 5763 5762 5766 5764 5760 5764 5765 5766 5768 5767 5767 5767 5769 5770 5772 5777 5779 5783 5786 5785 5787 5786 5787 5790
5799 5808 5799 5793 5761 5700 5780 5733 5731 5783 5778 5780 5782 5770 5775 5791 5773 5785 5791 5787 5785 5785 5779 5772 5769 5765 5763 5764 5766 5763 5761 5760 5768 5772 5775 5772 5769 5770 5771 5771 5772 5776 5785 5784 5785 5789 5786 5786 5787
5800 5802 5799 5791 5796 5772 5772 5795 5765 5795 5779 5783 5784 5787 5781 5781 5796 5796 5787 5795 5794 5791 5784 5777 5771 5767 5767 5764 5763 5762 5763 5762 5769 5775 5771 5774 5771 5771 5773 5771 5772 5775 5780 5780 5781 5783 5784 5788 5787
5809 5796 5797 5799 5801 5781 5787 5794 5781 5750 5799 5796 5799 5795 5784 5785 5794 5802 5802 5792 5798 5792 5790 5784 5772 5768 5769 5765 5762 5762 5766 5764 5767 5772 5771 5775 5775 5773 5772 5772 5772 5773 5778 5779 5780 5782 5783 5783 5785
5797 5801 5753 5741 5736 5763 5795 5794 5785 5802 5806 5806 5800 5799 5788 5786 5782 5796 5798 5796 5795 5791 5790 5787 5776 5768 5770 5768 5766 5764 5765 5765 5765 5768 5773 5776 5776 5780 5777 5774 5773 5774 5774 5778 5779 5779 5783 5782 5781
5795 5805 5777 5736 5742 5791 5810 5789 5790 5812 5814 5809 5798 5807 5807 5798 5793 5800 5803 5800 5797 5796 5793 5789 5780 5771 5771 5771 5767 5768 5766 5766 5768 5768 5777 5782 5781 5781 5783 5778 5777 5775 5776 5777 5777 5780 5782 5786 5783
5806 5785 5825 5801 5819 5789 5802 5800 5813 5809 5807 5804 5802 5797 5799 5800 5797 5799 5801 5804 5799 5796 5793 5791 5784 5776 5774 5774 5771 5770 5767 5767 5770 5776 5775 5780 5785 5788 5784 5782 5779 5778 5777 5778 5778 5778 5781 5781 5782
5802 5815 5793 5800 5764 5765 5770 5787 5773 5787 5792 5800 5803 5802 5795 5800 5800 5803 5800 5801 5801 5798 5796 5793 5790 5781 5779 5779 5776 5774 5773 5773 5772 5774 5773 5779 5779 5785 5782 5780 5780 5780 5779 5778 5777 5780 5781 5779 5779
5793 5788 5799 5812 5802 5778 5774 5759 5809 5795 5796 5796 5797 5800 5799 5796 5796 5796 5798 5797 5799 5801 5798 5795 5790 5785 5781 5781 5780 5778 5776 5776 5774 5774 5774 5775 5780 5779 5778 5778 5778 5779 5779 5779 5777 5776 5777 5777 5777
5816 5810 5805 5790 5776 5801 5793 5765 5807 5803 5800 5797 5793 5795 5793 5793 5795 5795 5791 5793 5797 5791 5793 5792 5790 5788 5786 5786 5783 5779 5778 5778 5777 5775 5778 5780 5776 5776 5776 5774 5775 5776 5776 5778 5776 5774 5779 5775 5776